Miscellaneous Local Product
Issued by NWS Hastings, NE

Home | Current Version | Previous Version | Graphics & Text | Print | Product List | Glossary On
Versions: 1 2 3 4 5 6 7 8 9 10 11 12 13 14 15 16 17 18 19 20 21 22 23 24 25 26 27 28 29 30 31 32 33 34 35 36 37 38 39 40 41 42 43 44 45 46 47 48 49 50
652
AXUS43 KGID 042002
MISGRI

GID CWA HOURLY WEATHER ROUNDUP
NATIONAL WEATHER SERVICE HASTINGS NE
200 PM CST SUN DEC 04 2016

NOTE: "FAIR" INDICATES FEW OR NO CLOUDS BELOW 12,000 FEET WITH NO
SIGNIFICANT WEATHER AND/OR OBSTRUCTIONS TO VISIBILITY.

...SOUTH CENTRAL NEBRASKA...

CITY           SKY/WX    TMP DP  RH WIND       PRES   REMARKS
GRAND ISLAND   SUNNY     50  30  46 W12       29.90F
HASTINGS       SUNNY     47  33  58 SW7       29.92F
KEARNEY        SUNNY     50  25  37 W7        29.90F
ORD            SUNNY     50  21  32 W8        29.86F
YORK           SUNNY     45  37  76 SW6       29.91F
AURORA         SUNNY     48  33  55 W7        29.90F
LEXINGTON      SUNNY     50  19  29 W9        29.90F
HOLDREGE       SUNNY     49  25  39 SW8       29.90F
HEBRON         SUNNY     36  32  85 W6        29.94F WCI  31

...NEBRASKA PANHANDLE...

CITY           SKY/WX    TMP DP  RH WIND       PRES   REMARKS
CHADRON        SUNNY     47  15  27 SW10      29.79F
ALLIANCE       SUNNY     47  14  26 W21G29    29.81F
SCOTTSBLUFF    SUNNY     47  14  26 W16       29.82F
SIDNEY         SUNNY     46  10  23 SW13      29.87F

...WESTERN AND NORTH CENTRAL NEBRASKA...

CITY           SKY/WX    TMP DP  RH WIND       PRES   REMARKS
VALENTINE      SUNNY     48  15  26 W17G24    29.83F
AINSWORTH      SUNNY     49  21  33 W12       29.83F
ONEILL         SUNNY     49  25  38 NW9       29.84F
BROKEN BOW     SUNNY     50  22  33 W14       29.86F
IMPERIAL       SUNNY     49   9  19 W14G23    29.90F
NORTH PLATTE   SUNNY     50  17  27 W12       29.89F
MCCOOK         SUNNY     52  17  25 NW17G24   29.91F

...EASTERN NEBRASKA...

CITY           SKY/WX    TMP DP  RH WIND       PRES   REMARKS
NORFOLK        SUNNY     49  28  44 W9        29.85F
SO SIOUX CITY  SUNNY     51  35  54 W9        29.85F
TEKAMAH        SUNNY     40  33  76 SW8       29.89F WCI  34
COLUMBUS       SUNNY     48  36  61 SW8       29.90F
ALBION         SUNNY     50  25  36 W8        29.86F
OMAHA EPPLEY   SUNNY     40  33  76 S7        29.91F
OFFUTT AFB     SUNNY     39  35  86 W7        29.91F WCI  34
MILLARD        SUNNY     37  32  82 W8        29.92F WCI  31
LINCOLN        SUNNY     36  32  85 W8        29.94F WCI  30
NEBRASKA CITY  MOSUNNY   40  34  81 W9        29.93F WCI  33
BEATRICE       MOSUNNY   38  34  85 W7        29.94F WCI  33
FALLS CITY     MOSUNNY   40  35  83 W10       29.95F WCI  33

...NORTHERN KANSAS...

CITY           SKY/WX    TMP DP  RH WIND       PRES   REMARKS
GOODLAND       SUNNY     48   9  20 SW9       29.93F
HILL CITY      SUNNY     52  20  28 W9        29.96F
NORTON         CLEAR     50  12  22 W12       29.93F
PHILLIPSBURG   SUNNY     50  28  43 W6        29.95F
SMITH CENTER   SUNNY     43  32  65 SW7       29.96F
BELOIT         SUNNY     43  34  70 SW7       29.97S
HAYS           SUNNY     49  29  46 NW9       29.97F
RUSSELL        SUNNY     48  28  46 W8        29.96F
CONCORDIA      SUNNY     45  34  65 W9        29.95F
SALINA         SUNNY     50  33  52 W8        29.99F
TOPEKA         CLOUDY    38  35  89 W7        29.99S WCI  33



USA.gov is the U.S. government's official web portal to all federal, state and local government web resources and services.